Wheaton NDB, MN

1:43 PM CDT on July 23, 2017 (GMT -0500)
Wheaton Municipal

Weather History for KETH - October, 2012

Change the Weather History Date:

Thursday, October 4, 2012

  Actual Average Record
Temperature  
Mean Temperature 42 °F -  
Max Temperature 48 °F 67 °F 86 °F (1975)
Min Temperature 35 °F 39 °F 25 °F (1988)
Degree Days  
Heating Degree Days 24    
Moisture  
Dew Point 34 °F    
Average Humidity 79    
Maximum Humidity 100    
Minimum Humidity 57    
Precipitation  
Precipitation 0.00 in - - ()
Sea Level Pressure  
Sea Level Pressure 30.08 in    
Wind  
Wind Speed 24 mph (WNW)    
Max Wind Speed 33 mph    
Max Gust Speed 41 mph    
Visibility 9 miles    
Events Rain    
Averages and records for this station are not official NWS values.
T = Trace of Precipitation, MM = Missing Value Source: NWS Daily Summary

Daily Weather History Graph

Daily Weather History Graph

Search for Another Location

Airport or City:

Trip Planner

Search our weather history database for the weather conditions in past years. The results will help you decide how hot, cold, wet, or windy it might be!

Date:

Astronomy

Oct. 04, 2012 Rise Set
Actual Time 7:29 AM CDT 6:59 PM CDT
Civil Twilight 6:59 AM CDT 7:29 PM CDT
Nautical Twilight 6:24 AM CDT 8:03 PM CDT
Astronomical Twilight 5:49 AM CDT 8:38 PM CDT
Moon 9:21 PM CDT (10/4) 12:01 PM CDT (10/4)
Length of Visible Light 12h 29m
Length of Day
11h 30m
Waning Gibbous, 82% of the Moon is Illuminated
Oct 4
Waning Gibbous
Oct 8
Last Quarter
Oct 15
New
Oct 21
First Quarter
Oct 29
Full

Hourly Weather History & Observations

Time (CDT) Temp. Windchill Dew Point Humidity Pressure Visibility Wind Dir Wind Speed Gust Speed Precip Events Conditions
12:15 AM 48.2 °F - 42.8 °F 82% 29.78 in 10.0 mi NW 23.0 mph 31.1 mph N/A   Clear
12:35 AM 46.4 °F 37.9 °F 41.0 °F 81% 29.78 in 10.0 mi NW 25.3 mph 33.4 mph N/A   Clear
12:55 AM 46.4 °F 38.1 °F 39.2 °F 76% 29.78 in 10.0 mi NW 24.2 mph 33.4 mph N/A   Scattered Clouds
1:15 AM 46.4 °F 37.5 °F 39.2 °F 76% 29.78 in 10.0 mi NW 27.6 mph 35.7 mph N/A   Mostly Cloudy
1:35 AM 44.6 °F 35.3 °F 39.2 °F 81% 29.79 in 10.0 mi NW 26.5 mph 38.0 mph N/A   Overcast
1:55 AM 44.6 °F 36.1 °F 39.2 °F 81% 29.81 in 10.0 mi WNW 21.9 mph 39.1 mph N/A   Overcast
2:15 AM 44.6 °F 35.1 °F 39.2 °F 81% 29.82 in 10.0 mi WNW 27.6 mph 35.7 mph N/A   Overcast
2:35 AM 44.6 °F 35.1 °F 39.2 °F 81% 29.83 in 10.0 mi WNW 27.6 mph 32.2 mph N/A   Overcast
2:55 AM 42.8 °F 33.1 °F 37.4 °F 81% 29.84 in 10.0 mi WNW 25.3 mph 36.8 mph N/A   Overcast
3:15 AM 42.8 °F 33.3 °F 39.2 °F 87% 29.86 in 10.0 mi WNW 24.2 mph 33.4 mph N/A   Overcast
3:36 AM 42.8 °F 32.9 °F 37.4 °F 81% 29.88 in 10.0 mi WNW 26.5 mph 35.7 mph N/A   Overcast
3:56 AM 42.8 °F 33.5 °F 39.2 °F 87% 29.88 in 4.0 mi WNW 23.0 mph 33.4 mph N/A Rain Light Rain
4:15 AM 39.2 °F 27.8 °F 37.4 °F 93% 29.89 in 3.0 mi West 27.6 mph 40.3 mph N/A   Drizzle
4:35 AM 37.4 °F 25.0 °F 35.6 °F 93% 29.91 in 5.0 mi WNW 29.9 mph 41.4 mph N/A   Overcast
4:55 AM 35.6 °F 22.3 °F 35.6 °F 100% 29.91 in 7.0 mi WNW 31.1 mph 38.0 mph N/A   Overcast
5:15 AM 35.6 °F 23.2 °F 35.6 °F 100% 29.93 in 7.0 mi WNW 26.5 mph 41.4 mph N/A   Overcast
5:35 AM 35.6 °F 22.5 °F 35.6 °F 100% 29.94 in 10.0 mi WNW 29.9 mph 41.4 mph N/A   Overcast
5:55 AM 35.6 °F 23.0 °F 35.6 °F 100% 29.95 in 10.0 mi NW 27.6 mph 38.0 mph N/A   Overcast
6:15 AM 35.6 °F 23.7 °F 35.6 °F 100% 29.96 in 10.0 mi NW 24.2 mph 35.7 mph N/A   Overcast
6:35 AM 35.6 °F 22.7 °F 35.6 °F 100% 29.98 in 10.0 mi NW 28.8 mph 36.8 mph N/A   Overcast
6:55 AM 35.6 °F 23.7 °F 35.6 °F 100% 29.99 in 10.0 mi WNW 24.2 mph 33.4 mph N/A   Overcast
7:15 AM 35.6 °F 24.2 °F 33.8 °F 93% 30.01 in 3.0 mi WNW 21.9 mph 27.6 mph N/A Rain Light Rain
7:40 AM 35.6 °F 24.8 °F 33.8 °F 93% 30.02 in 7.0 mi WNW 19.6 mph 34.5 mph N/A Rain Rain
7:55 AM 35.6 °F 23.7 °F 33.8 °F 93% 30.03 in 10.0 mi WNW 24.2 mph 33.4 mph N/A   Overcast
8:15 AM 35.6 °F 23.4 °F 33.8 °F 93% 30.03 in 10.0 mi WNW 25.3 mph 32.2 mph N/A   Light Drizzle
8:35 AM 35.6 °F 24.0 °F 33.8 °F 93% 30.04 in 10.0 mi WNW 23.0 mph 32.2 mph N/A   Mostly Cloudy
8:55 AM 35.6 °F 23.7 °F 33.8 °F 93% 30.05 in 10.0 mi WNW 24.2 mph 34.5 mph N/A   Overcast
9:15 AM 37.4 °F 25.9 °F 33.8 °F 87% 30.06 in 10.0 mi WNW 25.3 mph 35.7 mph N/A   Overcast
9:35 AM 37.4 °F 26.1 °F 33.8 °F 87% 30.07 in 10.0 mi WNW 24.2 mph 35.7 mph N/A   Overcast
9:55 AM 37.4 °F 25.6 °F 33.8 °F 87% 30.08 in 10.0 mi WNW 26.5 mph 35.7 mph N/A   Overcast
10:15 AM 39.2 °F 28.0 °F 33.8 °F 81% 30.09 in 10.0 mi WNW 26.5 mph 35.7 mph N/A   Overcast
10:35 AM 39.2 °F 27.4 °F 33.8 °F 81% 30.09 in 10.0 mi WNW 29.9 mph 39.1 mph N/A   Overcast
10:55 AM 39.2 °F 28.5 °F 33.8 °F 81% 30.10 in 10.0 mi WNW 24.2 mph 33.4 mph N/A   Overcast
11:35 AM 41.0 °F 30.2 °F 33.8 °F 76% 30.12 in 10.0 mi WNW 27.6 mph 39.1 mph N/A   Overcast
11:56 AM 41.0 °F 30.2 °F 32.0 °F 70% 30.12 in 10.0 mi WNW 27.6 mph 39.1 mph N/A   Overcast
12:18 PM 41.0 °F 30.2 °F 30.2 °F 65% 30.13 in 10.0 mi WNW 27.6 mph 39.1 mph N/A   Overcast
12:36 PM 42.8 °F 33.1 °F 30.2 °F 61% 30.14 in 10.0 mi WNW 25.3 mph 36.8 mph N/A   Overcast
12:55 PM 42.8 °F 32.5 °F 30.2 °F 61% 30.15 in 10.0 mi WNW 28.8 mph 38.0 mph N/A   Overcast
1:15 PM 42.8 °F 31.8 °F 30.2 °F 61% 30.15 in 10.0 mi WNW 33.4 mph 40.3 mph N/A   Overcast
1:35 PM 44.6 °F 34.9 °F 32.0 °F 61% 30.14 in 10.0 mi NW 28.8 mph 35.7 mph N/A   Mostly Cloudy
1:57 PM 42.8 °F 32.5 °F 30.2 °F 61% 30.15 in 10.0 mi NW 28.8 mph 39.1 mph N/A   Scattered Clouds
2:15 PM 42.8 °F 33.1 °F 32.0 °F 66% 30.15 in 10.0 mi NW 25.3 mph 33.4 mph N/A   Mostly Cloudy
2:35 PM 42.8 °F 33.1 °F 33.8 °F 70% 30.16 in 7.0 mi WNW 25.3 mph 32.2 mph N/A   Mostly Cloudy
2:55 PM 44.6 °F 34.9 °F 30.2 °F 57% 30.16 in 10.0 mi WNW 28.8 mph 35.7 mph N/A   Mostly Cloudy
3:15 PM 42.8 °F 34.3 °F 33.8 °F 70% 30.17 in 10.0 mi WNW 19.6 mph 27.6 mph N/A   Mostly Cloudy
3:35 PM 44.6 °F 35.3 °F 30.2 °F 57% 30.17 in 10.0 mi WNW 26.5 mph 31.1 mph N/A   Mostly Cloudy
3:55 PM 44.6 °F 35.3 °F 30.2 °F 57% 30.18 in 10.0 mi WNW 26.5 mph 33.4 mph N/A   Overcast
4:15 PM 42.8 °F 34.3 °F 35.6 °F 76% 30.19 in 5.0 mi WNW 19.6 mph 31.1 mph N/A   Light Drizzle
4:35 PM 44.6 °F 36.6 °F 35.6 °F 71% 30.19 in 10.0 mi WNW 19.6 mph 27.6 mph N/A   Scattered Clouds
4:55 PM 41.0 °F 32.5 °F 35.6 °F 81% 30.19 in 10.0 mi WNW 17.3 mph 25.3 mph N/A   Scattered Clouds
5:15 PM 42.8 °F 34.3 °F 35.6 °F 76% 30.20 in 10.0 mi WNW 19.6 mph 27.6 mph N/A   Mostly Cloudy
5:35 PM 42.8 °F 34.3 °F 35.6 °F 76% 30.20 in 10.0 mi WNW 19.6 mph 26.5 mph N/A   Mostly Cloudy
5:55 PM 42.8 °F 35.1 °F 35.6 °F 76% 30.20 in 10.0 mi WNW 16.1 mph 25.3 mph N/A   Scattered Clouds
6:15 PM 41.0 °F 31.9 °F 35.6 °F 81% 30.21 in 7.0 mi WNW 19.6 mph 28.8 mph N/A   Light Drizzle
6:35 PM 41.0 °F 32.2 °F 35.6 °F 81% 30.21 in 10.0 mi WNW 18.4 mph 25.3 mph N/A   Overcast
6:55 PM 41.0 °F 32.8 °F 35.6 °F 81% 30.22 in 10.0 mi WNW 16.1 mph 25.3 mph N/A   Overcast
7:15 PM 39.2 °F 30.8 °F 35.6 °F 87% 30.22 in 10.0 mi WNW 15.0 mph 18.4 mph N/A   Overcast
7:35 PM 39.2 °F 32.5 °F 33.8 °F 81% 30.22 in 10.0 mi WNW 10.4 mph - N/A   Mostly Cloudy
7:55 PM 39.2 °F 31.2 °F 33.8 °F 81% 30.22 in 10.0 mi WNW 13.8 mph 18.4 mph N/A   Mostly Cloudy
8:15 PM 39.2 °F 30.5 °F 33.8 °F 81% 30.23 in 10.0 mi WNW 16.1 mph 23.0 mph N/A   Mostly Cloudy
8:35 PM 39.2 °F 30.8 °F 33.8 °F 81% 30.23 in 10.0 mi WNW 15.0 mph 19.6 mph N/A   Scattered Clouds
8:55 PM 39.2 °F 30.2 °F 33.8 °F 81% 30.23 in 10.0 mi WNW 17.3 mph 24.2 mph N/A   Scattered Clouds
9:15 PM 39.2 °F 31.6 °F 33.8 °F 81% 30.23 in 10.0 mi WNW 12.7 mph 18.4 mph N/A   Mostly Cloudy
9:35 PM 41.0 °F 33.5 °F 33.8 °F 76% 30.24 in 10.0 mi West 13.8 mph 19.6 mph N/A   Overcast
9:55 PM 41.0 °F 33.5 °F 33.8 °F 76% 30.24 in 10.0 mi West 13.8 mph 19.6 mph N/A   Overcast
10:15 PM 41.0 °F 33.1 °F 32.0 °F 70% 30.24 in 10.0 mi West 15.0 mph 19.6 mph N/A   Overcast
10:35 PM 41.0 °F 33.1 °F 30.2 °F 65% 30.24 in 10.0 mi West 15.0 mph 21.9 mph N/A   Overcast
10:55 PM 41.0 °F 32.2 °F 28.4 °F 61% 30.24 in 10.0 mi WNW 18.4 mph 24.2 mph N/A   Overcast
11:15 PM 39.2 °F 31.2 °F 28.4 °F 65% 30.25 in 10.0 mi WNW 13.8 mph - N/A   Scattered Clouds
11:35 PM 39.2 °F 31.6 °F 28.4 °F 65% 30.24 in 10.0 mi WNW 12.7 mph 18.4 mph N/A   Mostly Cloudy
11:55 PM 39.2 °F 30.2 °F 28.4 °F 65% 30.24 in 10.0 mi WNW 17.3 mph 20.7 mph N/A   Mostly Cloudy